Hourly Data Report for September 30, 2017

All times are specified in Local Standard Time (LST). Add 1 hour to adjust for Daylight Saving Time where and when it is observed.

MISCOU ISLAND (AUT)
NEW BRUNSWICK

48°00'32.002" N
64°29'39.008" W
4.00 m
8103050
71719
WMI

Download Data

Hourly Data (September 2017)
Hourly Data Report for September 30, 2017
Temp Definition
°C
Dew Point Temp Definition
°C
Rel Hum Definition
%
Wind Dir Definition
10's deg

Wind Spd Definition
km/h
Visibility Definition
km
Stn Press Definition
kPa
Hmdx Definition


Wind Chill Definition


Weather Definition


TIME
00:00 8.5 4.0 74 34 26   101.81     LegendNANA
01:00 8.3 3.8 73 1 24   101.87     LegendNANA
02:00 7.9 3.7 75 36 30   101.92     LegendNANA
03:00 7.5 3.7 76 36 32   101.98     LegendNANA
04:00 7.4 2.7 72 36 24   102.04     LegendNANA
05:00 7.6 2.3 69 35 30   102.08     LegendNANA
06:00 7.3 1.9 69 35 30   102.15     LegendNANA
07:00 7.4 1.8 67 35 30   102.23     LegendNANA
08:00 7.7 0.6 61 36 22   102.32     LegendNANA
09:00 8.1 0.8 60 36 15   102.38     LegendNANA
10:00 8.4 0.7 58 36 12   102.40     LegendNANA
11:00 9.7 0.4 52 31 12   102.40     LegendNANA
12:00 10.2 0.7 52 32 9   102.44     LegendNANA
13:00 10.4 0.6 51 31 7   102.40     LegendNANA
14:00 11.1 1.5 51 29 8   102.35     LegendNANA
15:00 11.1 1.9 53 25 13   102.32     LegendNANA
16:00 10.1 1.5 55 24 16   102.29     LegendNANA
17:00 9.5 2.1 60 24 15   102.27     LegendNANA
18:00 5.3 0.7 72 22 12   102.25     LegendNANA
19:00 3.4 0.4 81 22 15   102.27     LegendNANA
20:00 2.4 -0.2 83 21 15   102.26     LegendNANA
21:00 3.3 0.6 82 19 16   102.21     LegendNANA
22:00 3.4 1.3 86 21 14   102.19     LegendNANA
23:00 4.4 2.1 85 20 17   102.16     LegendNANA

Notes on Data Quality.

Legend

  • E = Estimated
  • M = Missing
  • NA = Not Available
  • ‡ = Partner data that is not subject to review by the National Climate Archives
Date modified: